Wind_Speed
41 42 45 46 47 46 45 47 48 56 58 58 57 57 53 54 52 53 50 49 54 52 49 44 41 37 37 38 36 31 41 48 47 42 43 50 53 50 52 49 52 53 58 61 62
33 32 33 34 35 44 52 53 52 53 58 58 58 58 55 54 54 54 47 49 55 57 54 48 43 39 39 39 39 39 46 46 39 42 37 34 44 51 54 52 50 50 56 58 60
31 33 32 31 31 30 37 47 46 44 50 55 59 58 57 54 56 54 50 49 54 59 54 51 52 49 44 41 44 45 52 40 32 35 35 34 34 37 52 55 53 53 56 57 56
25 27 28 30 31 29 29 37 43 41 42 41 50 56 57 56 58 55 52 51 52 56 55 56 55 52 51 46 47 48 50 43 38 32 29 33 37 39 40 48 57 55 59 58 56
33 33 31 29 28 28 26 27 43 49 45 44 47 46 52 60 58 53 55 54 53 52 57 64 56 57 53 52 49 52 50 44 40 33 35 32 35 38 40 38 41 49 54 57 56
34 33 32 28 25 25 25 24 27 42 51 48 48 51 57 59 57 59 56 57 56 54 54 58 61 57 55 53 53 53 49 49 43 41 38 36 35 36 37 41 40 42 46 48 51
29 28 28 27 24 23 22 22 22 28 39 47 46 45 55 56 59 60 60 58 57 57 55 55 59 56 50 51 51 48 52 50 49 48 44 38 35 37 36 38 40 42 49 53 55
28 28 27 26 27 25 23 22 21 21 31 40 38 43 50 54 59 58 58 59 59 56 52 53 53 56 56 57 57 54 54 56 56 51 47 40 36 37 38 40 41 45 49 50 51
28 28 26 25 25 27 25 22 21 22 21 32 40 45 50 49 55 59 56 56 55 54 52 50 53 57 58 56 55 54 56 60 55 51 48 45 42 42 41 43 45 47 50 52 52
28 26 25 24 23 26 26 28 27 25 25 24 37 42 53 51 52 55 55 57 55 55 55 55 55 55 55 56 57 56 54 53 52 50 47 46 48 48 50 48 48 50 51 54 56
33 30 30 24 21 23 25 27 32 33 27 24 22 42 48 55 56 58 56 58 57 55 57 58 59 60 60 58 56 55 52 50 50 49 50 51 54 52 51 51 53 53 54 57 57
37 34 29 28 28 24 24 27 31 34 30 28 26 25 47 50 54 60 58 57 58 56 55 57 63 63 61 59 54 54 53 55 55 54 56 56 55 54 54 56 59 60 61 61 60
40 39 36 34 31 27 26 28 31 30 29 34 29 26 31 51 50 53 58 58 58 56 58 54 54 58 58 59 55 56 58 58 57 56 56 56 53 53 59 61 61 63 66 65 61
45 42 41 37 32 30 29 29 31 27 28 32 32 29 22 31 52 52 54 58 58 58 54 50 53 56 55 53 54 53 52 54 58 56 51 52 49 52 58 62 64 67 69 64 56
49 47 43 41 37 33 36 31 31 27 26 28 31 30 26 21 35 55 55 55 58 57 57 54 52 53 53 56 54 53 53 53 54 52 51 49 48 47 47 51 60 65 66 64 64
50 49 47 42 40 38 39 34 34 30 27 27 30 33 31 27 24 36 54 60 56 54 56 56 56 57 55 54 56 55 55 54 54 53 53 53 51 52 52 56 57 59 62 62 63
55 50 51 46 42 42 39 39 36 35 27 27 31 31 34 30 27 25 34 48 58 58 58 56 57 57 56 56 55 58 58 56 54 56 53 52 50 53 59 58 59 60 61 63 64
65 57 54 52 45 44 41 39 39 38 30 28 30 32 32 34 32 29 27 33 42 52 59 58 56 56 56 58 59 59 58 57 56 56 54 51 48 52 57 60 63 62 65 66 69
56 60 58 56 51 47 44 40 46 39 33 31 29 29 31 32 34 33 30 29 33 40 48 53 55 56 57 57 58 57 56 57 58 58 57 54 52 54 57 58 60 64 66 69 72
46 48 55 58 58 54 47 47 50 42 38 33 32 30 33 34 32 34 33 35 36 38 40 40 45 50 52 54 56 58 60 60 60 59 57 55 55 57 60 59 59 61 64 67 69
44 38 39 48 56 56 53 53 52 43 40 36 35 34 35 38 35 34 37 38 40 39 39 39 41 44 49 51 53 55 55 57 59 57 57 55 57 61 63 62 63 65 67 68 68
40 39 35 36 46 51 55 56 54 48 43 41 38 40 39 39 40 38 39 41 42 43 42 45 44 46 46 46 52 55 57 58 58 57 57 57 57 61 61 62 64 68 70 72 73
30 37 38 37 37 43 53 59 58 49 46 44 43 44 42 42 43 43 41 46 48 46 47 52 52 52 49 47 50 54 54 54 55 55 53 53 51 57 57 59 62 63 65 66 67
22 28 36 40 40 42 47 53 55 50 47 47 48 46 47 47 47 47 48 48 49 50 52 55 55 56 54 54 57 58 60 61 59 56 56 56 56 55 57 62 63 64 65 67 68
20 23 28 37 40 41 43 47 51 49 47 48 52 53 51 51 51 52 53 53 54 53 54 56 57 58 61 60 61 65 59 60 61 60 61 63 61 59 60 62 64 66 67 68 68
19 23 28 33 36 39 42 44 48 49 49 50 54 56 52 52 53 53 55 54 54 56 52 54 62 61 61 63 67 64 61 61 62 62 62 65 65 65 65 66 66 69 70 71 71
10 14 20 27 33 37 39 42 45 44 45 47 52 55 55 54 52 52 51 52 51 55 62 65 69 70 70 70 72 66 67 67 69 68 69 71 71 70 70 70 69 70 71 72 74
Wind_Direction
282 277 277 273 271 267 260 254 253 247 243 243 243 245 240 238 236 238 235 235 231 235 238 243 241 239 237 233 233 237 236 241 243 236 236 231 228 231 233 239 241 245 242 240 238
283 279 277 278 277 264 257 256 257 253 241 242 240 241 240 237 234 234 235 230 226 232 237 242 240 243 241 237 234 234 239 240 250 245 235 238 235 234 238 236 238 245 247 246 243
287 287 285 283 281 288 265 253 252 248 238 238 237 237 237 234 232 231 233 230 227 230 233 238 241 244 244 238 237 239 244 246 249 251 239 232 235 236 235 238 238 243 247 248 250
299 299 294 288 287 293 280 255 242 238 240 239 234 234 237 231 228 229 231 230 229 230 231 237 239 244 243 242 240 240 242 245 247 250 245 244 238 236 236 236 240 243 250 249 253
297 295 293 293 287 289 293 271 247 240 239 239 239 236 235 222 227 226 227 228 230 230 231 233 239 242 239 244 243 242 240 243 246 247 242 235 236 238 237 239 239 243 250 253 252
298 293 291 289 293 286 291 286 265 245 240 243 244 245 232 224 223 224 224 228 227 227 229 233 232 239 244 242 240 244 241 241 242 241 242 234 235 238 240 238 240 244 249 252 251
302 300 293 283 286 289 284 289 283 255 242 241 246 245 222 222 222 223 225 226 228 229 229 232 235 236 238 240 240 248 246 240 237 239 238 240 240 239 241 244 242 244 246 247 253
301 299 294 287 279 280 280 282 285 275 247 239 244 231 220 224 222 222 226 227 227 229 229 232 233 233 239 242 242 245 245 239 235 235 242 242 239 244 244 243 246 246 243 247 252
303 298 293 291 281 274 272 276 276 268 262 243 236 228 225 224 225 226 227 228 228 227 229 230 232 233 235 235 238 243 243 241 239 239 243 244 244 242 245 243 243 243 243 246 247
300 300 301 289 288 277 269 266 268 263 259 256 238 230 225 226 227 225 228 227 228 229 230 231 232 232 233 236 237 239 244 246 245 244 245 245 247 243 242 244 245 245 245 243 242
292 290 292 297 296 282 273 265 260 257 260 262 260 233 228 225 228 226 228 226 227 227 230 232 233 232 233 235 239 242 244 246 245 245 245 245 247 243 246 247 247 247 247 247 246
285 282 281 279 292 286 274 263 260 257 257 259 261 253 229 227 229 229 228 228 228 229 232 234 233 234 236 237 240 243 242 243 245 244 245 246 248 249 249 250 252 252 251 250 251
286 280 275 270 279 275 273 264 259 258 253 251 256 264 246 226 230 229 226 226 227 229 229 234 235 235 237 238 240 242 240 240 243 242 243 246 249 254 252 250 250 252 252 252 252
284 280 274 271 269 262 261 265 265 261 253 253 250 256 268 242 229 227 227 227 229 230 231 232 233 233 236 236 236 238 240 242 243 242 244 246 252 254 254 252 252 253 253 254 251
281 279 274 270 263 260 254 264 265 261 253 251 247 246 250 251 237 228 227 229 229 230 230 231 231 232 234 232 235 238 239 239 240 243 247 249 250 255 260 259 254 253 255 255 254
278 275 271 266 263 254 253 257 259 257 251 246 246 240 241 247 249 233 229 229 230 232 233 234 235 236 237 237 237 239 240 241 244 247 248 248 249 253 254 254 252 252 253 254 255
274 268 265 262 260 255 252 252 251 250 251 244 243 242 238 238 246 244 236 232 229 230 231 233 234 235 237 238 240 241 241 243 245 246 249 250 250 252 250 250 253 255 256 256 256
267 262 258 258 254 254 250 247 246 246 249 246 245 243 240 237 240 243 243 235 233 233 233 233 236 238 238 239 240 242 244 246 247 247 248 251 248 248 253 250 250 252 254 257 258
262 255 251 252 250 249 248 243 243 245 245 245 245 243 243 239 236 237 241 236 233 233 234 234 236 237 239 240 241 242 243 245 247 248 250 252 252 250 251 253 253 253 255 256 259
264 257 247 245 246 246 242 238 240 241 242 242 247 247 239 237 237 233 233 232 233 234 234 236 238 237 239 241 244 244 244 246 248 249 250 251 250 249 250 250 251 252 254 255 258
258 255 247 243 241 240 237 234 237 237 238 239 238 241 238 232 234 234 233 232 232 234 234 233 238 239 239 240 239 242 245 246 247 249 249 249 250 251 252 253 253 253 255 256 257
257 251 242 235 236 234 234 233 234 232 233 234 233 232 234 233 231 229 232 236 235 232 233 233 231 238 237 242 243 244 247 249 250 250 250 250 251 254 254 254 255 256 256 256 257
258 247 240 235 234 234 232 231 232 231 230 232 231 231 232 233 231 230 229 230 233 235 233 234 233 235 237 243 244 242 244 247 249 251 251 251 252 257 258 259 258 257 258 260 261
254 245 237 237 234 235 233 231 231 229 227 228 229 229 231 231 231 231 228 231 234 233 237 240 240 241 240 240 240 243 245 247 248 251 251 250 250 253 258 259 259 261 262 262 262
251 244 236 235 234 236 234 228 226 223 221 223 227 227 229 232 232 231 231 229 232 234 238 243 247 249 248 248 250 249 250 256 256 255 255 254 255 259 261 263 264 263 263 264 265
245 244 241 237 230 230 228 224 221 218 217 218 224 228 228 232 236 236 235 238 235 236 242 245 243 246 249 250 252 255 258 258 258 258 260 259 262 263 263 263 264 264 265 265 266
222 222 221 220 217 222 224 222 222 218 218 219 224 229 231 231 233 239 238 237 240 242 240 238 244 250 250 251 255 260 262 263 262 260 262 263 263 262 264 263 262 262 262 264 266
Height
10769 10768 10766 10764 10763 10763 10763 10766 10769 10773 10778 10784 10790 10795 10801 10806 10811 10815 10816 10828 10831 10836 10840 10846 10851 10855 10859 10862 10867 10871 10868 10863 10874 10886 10893 10901 10907 10907 10910 10911 10913 10913 10910 10915 10922
10759 10757 10755 10753 10751 10749 10750 10752 10755 10756 10762 10769 10775 10781 10788 10794 10799 10802 10812 10815 10821 10826 10832 10838 10843 10847 10850 10855 10859 10862 10855 10860 10873 10879 10890 10896 10900 10903 10902 10904 10906 10901 10901 10907 10915
10751 10748 10746 10743 10741 10738 10736 10737 10741 10743 10748 10754 10760 10767 10774 10781 10786 10793 10800 10805 10810 10817 10823 10829 10833 10837 10841 10848 10849 10850 10845 10860 10868 10872 10882 10889 10891 10893 10895 10894 10896 10896 10894 10898 10906
10743 10740 10737 10734 10732 10730 10726 10726 10730 10733 10738 10742 10747 10754 10761 10768 10774 10783 10789 10795 10800 10807 10813 10818 10823 10828 10832 10838 10840 10841 10843 10854 10860 10868 10875 10880 10883 10884 10885 10889 10890 10891 10887 10893 10897
10735 10732 10729 10727 10724 10722 10720 10718 10718 10723 10728 10732 10737 10743 10748 10754 10762 10774 10777 10784 10790 10795 10802 10807 10812 10817 10823 10828 10833 10831 10838 10846 10853 10860 10864 10870 10873 10876 10879 10882 10883 10884 10882 10885 10886
10726 10723 10721 10719 10717 10715 10713 10711 10709 10711 10716 10721 10726 10731 10736 10742 10757 10757 10767 10771 10778 10784 10790 10796 10803 10811 10816 10819 10820 10822 10833 10836 10844 10847 10853 10860 10866 10868 10872 10875 10878 10877 10875 10875 10873
10719 10716 10713 10712 10711 10709 10707 10705 10704 10703 10705 10710 10714 10717 10723 10735 10741 10746 10753 10761 10767 10775 10781 10789 10796 10802 10806 10808 10812 10817 10820 10827 10831 10834 10842 10853 10858 10860 10866 10867 10868 10868 10866 10865 10864
10713 10710 10707 10705 10703 10703 10701 10700 10699 10697 10697 10701 10704 10708 10715 10721 10729 10737 10743 10751 10758 10767 10774 10779 10785 10791 10795 10799 10802 10805 10808 10813 10817 10826 10833 10846 10851 10851 10856 10857 10859 10858 10856 10855 10856
10707 10703 10700 10698 10696 10695 10695 10694 10693 10692 10691 10691 10696 10699 10705 10714 10722 10728 10733 10741 10750 10758 10763 10769 10773 10779 10784 10786 10791 10792 10794 10800 10812 10820 10826 10835 10840 10841 10843 10846 10848 10849 10848 10848 10848
10700 10697 10694 10691 10689 10687 10687 10687 10686 10684 10683 10684 10685 10690 10697 10704 10709 10716 10723 10730 10739 10747 10753 10757 10762 10768 10771 10774 10777 10782 10788 10796 10806 10812 10818 10823 10824 10827 10829 10832 10834 10838 10839 10840 10840
10692 10690 10687 10685 10683 10680 10679 10678 10676 10674 10676 10679 10679 10680 10686 10692 10698 10706 10712 10721 10729 10735 10739 10745 10752 10755 10757 10763 10772 10777 10785 10790 10795 10800 10803 10807 10808 10816 10819 10821 10822 10824 10825 10826 10829
10683 10680 10679 10677 10676 10674 10671 10668 10666 10668 10672 10672 10671 10671 10676 10684 10689 10695 10703 10710 10717 10723 10729 10734 10736 10743 10752 10757 10764 10769 10774 10777 10781 10787 10789 10794 10799 10805 10809 10809 10808 10808 10810 10813 10818
10672 10669 10668 10667 10666 10665 10662 10660 10657 10661 10664 10663 10665 10665 10667 10674 10679 10684 10692 10698 10706 10713 10717 10724 10731 10736 10740 10749 10754 10756 10760 10764 10767 10772 10777 10782 10789 10792 10793 10794 10795 10795 10793 10798 10808
10656 10656 10655 10655 10656 10654 10651 10650 10650 10653 10655 10655 10659 10659 10662 10665 10669 10675 10682 10689 10695 10701 10709 10716 10721 10725 10732 10738 10741 10743 10749 10752 10755 10761 10767 10772 10779 10777 10779 10781 10782 10780 10777 10787 10796
10640 10639 10640 10641 10644 10644 10639 10642 10641 10644 10646 10648 10650 10652 10654 10657 10658 10666 10672 10677 10683 10691 10697 10704 10709 10713 10720 10723 10727 10732 10737 10740 10744 10750 10755 10762 10765 10768 10767 10768 10764 10763 10766 10776 10780
10623 10622 10622 10626 10628 10629 10629 10632 10631 10635 10637 10639 10639 10643 10647 10650 10652 10655 10660 10665 10676 10683 10689 10695 10699 10701 10709 10714 10718 10722 10727 10730 10735 10740 10744 10748 10753 10755 10756 10753 10753 10753 10754 10759 10762
10600 10604 10603 10608 10613 10614 10618 10620 10622 10623 10629 10631 10631 10635 10639 10643 10645 10649 10652 10657 10664 10670 10674 10681 10685 10691 10698 10703 10707 10709 10713 10719 10725 10728 10732 10735 10740 10743 10740 10741 10741 10743 10744 10744 10747
10572 10582 10586 10588 10597 10600 10605 10610 10610 10613 10620 10621 10623 10627 10632 10636 10639 10643 10646 10649 10654 10659 10663 10670 10678 10683 10687 10689 10694 10698 10702 10708 10713 10715 10720 10724 10732 10729 10725 10728 10729 10731 10731 10731 10730
10546 10553 10563 10570 10578 10584 10593 10598 10593 10603 10611 10613 10615 10619 10624 10628 10631 10636 10639 10642 10645 10648 10652 10660 10666 10669 10674 10677 10682 10686 10689 10692 10697 10702 10708 10714 10718 10717 10714 10713 10715 10717 10718 10716 10715
10525 10530 10540 10549 10558 10567 10579 10582 10581 10592 10599 10605 10607 10611 10614 10619 10623 10627 10630 10634 10637 10640 10644 10650 10654 10659 10663 10667 10670 10674 10674 10681 10684 10690 10697 10702 10704 10701 10699 10702 10703 10702 10702 10702 10701
10508 10515 10522 10530 10538 10550 10562 10565 10569 10582 10588 10594 10598 10601 10604 10609 10615 10618 10621 10625 10628 10633 10637 10640 10644 10648 10652 10656 10658 10659 10663 10666 10669 10678 10682 10688 10689 10684 10685 10689 10690 10689 10688 10688 10689
10494 10502 10509 10516 10521 10531 10542 10551 10557 10569 10576 10581 10586 10589 10593 10598 10604 10608 10612 10614 10619 10622 10627 10630 10634 10635 10639 10643 10646 10648 10650 10652 10656 10661 10667 10671 10671 10670 10671 10671 10672 10671 10672 10673 10672
10482 10488 10496 10502 10509 10516 10524 10533 10543 10558 10565 10569 10573 10578 10585 10588 10592 10597 10602 10602 10606 10611 10619 10618 10622 10624 10629 10633 10633 10634 10637 10641 10645 10649 10655 10658 10659 10655 10656 10655 10654 10655 10655 10655 10655
10471 10475 10485 10490 10496 10502 10510 10521 10533 10545 10554 10557 10561 10567 10573 10577 10581 10585 10590 10593 10595 10601 10604 10606 10610 10614 10619 10618 10616 10621 10623 10627 10632 10636 10639 10643 10644 10643 10644 10642 10641 10639 10639 10639 10639
10462 10467 10474 10480 10486 10493 10499 10509 10521 10531 10541 10545 10548 10553 10560 10565 10568 10573 10576 10581 10584 10590 10593 10596 10599 10600 10602 10603 10602 10604 10612 10615 10618 10620 10622 10623 10627 10627 10627 10628 10628 10625 10624 10622 10622
10455 10460 10466 10472 10478 10482 10488 10497 10507 10517 10527 10532 10536 10541 10551 10554 10559 10561 10568 10573 10578 10579 10585 10585 10583 10586 10587 10588 10587 10590 10594 10596 10599 10601 10604 10605 10607 10609 10611 10611 10611 10609 10607 10603 10605
10449 10453 10458 10462 10468 10473 10479 10487 10496 10508 10518 10526 10530 10535 10540 10546 10551 10553 10559 10565 10568 10570 10571 10572 10571 10571 10573 10574 10575 10580 10579 10578 10579 10580 10580 10583 10585 10590 10592 10591 10591 10589 10589 10587 10585